Regional Weather Roundup
Issued by NWS Columbia, SC

Home | Current Version | Previous Version | Text Only | Print | Product List | Glossary On
Versions: 1 2 3 4 5 6 7 8 9 10 11 12 13 14 15 16 17 18 19 20 21 22 23 24 25 26 27
000
ASUS42 KCAE 031110
RWRCAE
REGIONAL WEATHER ROUNDUP
NATIONAL WEATHER SERVICE COLUMBIA SC
700 AM EDT TUE MAY 03 2016

NOTE: "FAIR" INDICATES FEW OR NO CLOUDS BELOW 12,000 FEET WITH NO
SIGNIFICANT WEATHER AND/OR OBSTRUCTIONS TO VISIBILITY.

NOT ALL STATIONS ARE QUALITY CONTROLLED BY THE NATIONAL
WEATHER SERVICE. USE DATA WITH CAUTION...ESPECIALLY
DEWPOINT OBSERVATIONS.

SCZ001>056-GAZ040-063>065-077-031200-
...UPSTATE SOUTH CAROLINA...

CITY           SKY/WX    TMP DP  RH WIND       PRES   REMARKS
ANDERSON       MOCLDY    65  64  97 S5        29.86S
LIBERTY        CLOUDY    63  63  97 W3        29.86R
SPARTANBURG    CLOUDY    64  63  94 SW5       29.85S
CLEMSON        LGT RAIN  66  63  90 CALM      29.86F FOG
GREENVILLE     LGT RAIN  65  63  93 W7        29.87R
GREENWOOD      CLOUDY    65  63  93 SW6       29.88S
GREER          CLOUDY    65  63  93 SW7       29.85R
ROCK HILL      MOCLDY    64  63  96 SW7       29.85R
CHESTER        CLOUDY    63  63 100 S5        29.86S
LAURENS        CLOUDY    63  63 100 SW7       29.86S FOG


...CENTRAL SOUTH CAROLINA...

CITY           SKY/WX    TMP DP  RH WIND       PRES   REMARKS
COLUMBIA APT   MOCLDY    67  65  93 CALM      29.86R
COLUMBIA OWENS CLOUDY    67  65  93 S3        29.87S
MCENTIRE ANGB  CLOUDY    65  64  97 CALM      29.86S
ORANGEBURG     TSTM      70  68  93 SW8       29.87R FOG
SUMTER SHAW    CLOUDY    66  64  93 W2        29.84S
NEWBERRY       CLOUDY    64  64 100 S5        29.89S
AIKEN          CLOUDY    64  64 100 S3        29.90S
BARNWELL       FAIR      72  72 100 CALM      29.88R
MANNING        CLOUDY    68  66  94 CALM      29.86F
CAMDEN         FAIR      66  64  94 CALM      29.86F
LANCASTER      PTSUNNY   64  64 100 S6        29.86S FOG
WINNSBORO      CLOUDY    64  64 100 SW3       29.87R


...EASTERN AND COASTAL SOUTH CAROLINA...

CITY           SKY/WX    TMP DP  RH WIND       PRES   REMARKS
MYRTLE BEACH   MOCLDY    73  61  64 S12       29.88R
N MYRTLE BCH   CLOUDY    72  66  81 SW14      29.87R
CONWAY         CLOUDY    70  68  94 CALM      29.87R
MARION         CLOUDY    64  63  94 CALM      29.87S
HARTSVILLE     CLOUDY    63  63 100 CALM      29.86R
FLORENCE       CLOUDY    66  64  93 W5        29.87R
DARLINGTON     LGT RAIN  66  65  96 S6        29.87R
CHARLESTON APT CLOUDY    75  71  87 SW9       29.86S
MOUNT PLEASANT PTSUNNY   75  73  94 SW9       29.87S FOG
WALTERBORO     CLOUDY    73  73 100 SW6       29.88S
BEAUFORT       CLOUDY    74  72  93 SW6       29.88R


...EASTERN GEORGIA...

CITY           SKY/WX    TMP DP  RH WIND       PRES   REMARKS
AUGUSTA BUSH F CLOUDY    66  66 100 CALM      29.86S FOG
AUGUSTA DANIEL CLOUDY    69  66  90 CALM      29.88R
THOMSON        CLOUDY    69  69 100 CALM      29.92R
WASHINGTON     CLOUDY    63  63 100 CALM      29.87S
CLAXTON        FAIR      70  70 100 CALM      29.89S FOG
SYLVANIA       CLOUDY    71  71 100 CALM      29.89R
STATESBORO     CLOUDY    73  73 100 CALM      29.89R
SAVANNAH       CLOUDY    72  69  90 SW6       29.89S


...SOUTHERN NORTH CAROLINA...

CITY           SKY/WX    TMP DP  RH WIND       PRES   REMARKS
CHARLOTTE      CLOUDY    64  62  93 S3        29.84S
MONROE         CLOUDY    64  63  96 SW7       29.84F
WADESBORO      LGT RAIN N/A N/A N/A CALM      29.84R
ROCKINGHAM     LGT RAIN  64  64  98 SW3       29.86R
RUTHERFORDTON  LGT RAIN  62  62 100 CALM      29.87R
ASHEVILLE      LGT RAIN  61  58  90 N6        29.89S

$$




USA.gov is the U.S. government's official web portal to all federal, state and local government web resources and services.